Location: Forst
(46.9333°N, 15.4333°E)
Time: 06:36:13
(UTC+00:00)

NOSS 3-3 (C) - Pass Details

Date: 01 December 2020
Orbit: 820 x 1392 km, 63.4° (Epoch: 14 January)

Event Time Altitude Azimuth Distance (km) Brightness Sun altitude
Rises 17:32:43 0° 319° (NW) 3,948 7.6 -23.4°
Reaches altitude 10° 17:35:16 10° 320° (NW) 3,064 7.0 -23.8°
Maximum altitude 17:42:46 88° 49° (NE) 1,275 4.4 -25.1°
Enters shadow 17:48:00 26° 141° (SE) 2,373 5.7 -26.0°
